Alliance, NE

9:59 PM MDT on September 24, 2017 (GMT -0600)
Alliance Municipal

Weather History for KAIA - November, 2013

Change the Weather History Date:

Monday, November 18, 2013

  Actual Average Record
Temperature  
Mean Temperature 38 °F 32 °F  
Max Temperature 59 °F 47 °F 78 °F (2008)
Min Temperature 17 °F 17 °F -5 °F (1903)
Degree Days  
Heating Degree Days 27 33  
Month to date heating degree days 486 525  
Since 1 July heating degree days 1272 1367  
Cooling Degree Days 0 0  
Month to date cooling degree days 0 0  
Year to date cooling degree days 795 564  
Moisture  
Dew Point 19 °F    
Average Humidity 54    
Maximum Humidity 84    
Minimum Humidity 23    
Precipitation  
Precipitation 0.00 in 0.01 in 0.15 in (1985)
Month to date precipitation 0.45 0.28  
Year to date precipitation 13.65 15.17  
Sea Level Pressure  
Sea Level Pressure 30.10 in    
Wind  
Wind Speed 6 mph (SSW)    
Max Wind Speed 20 mph    
Max Gust Speed 22 mph    
Visibility 10 miles    
Events      
T = Trace of Precipitation, MM = Missing Value Source: NWS Daily Summary

Daily Weather History Graph

Daily Weather History Graph

Search for Another Location

Airport or City:

Trip Planner

Search our weather history database for the weather conditions in past years. The results will help you decide how hot, cold, wet, or windy it might be!

Date:

Astronomy

Nov. 18, 2013 Rise Set
Actual Time 6:45 AM MST 4:27 PM MST
Civil Twilight 6:14 AM MST 4:57 PM MST
Nautical Twilight 5:40 AM MST 5:31 PM MST
Astronomical Twilight 5:07 AM MST 6:04 PM MST
Moon 5:31 PM MST (11/18) 7:36 AM MST (11/18)
Length of Visible Light 10h 42m
Length of Day
9h 42m
Full, 99% of the Moon is Illuminated
Nov 18
Full
Nov 25
Last Quarter
Dec 2
New
Dec 9
First Quarter
Dec 17
Full

Hourly Weather History & Observations

Time (MST) Temp. Windchill Dew Point Humidity Pressure Visibility Wind Dir Wind Speed Gust Speed Precip Events Conditions
12:53 AM 23.0 °F - 10.9 °F 60% 30.12 in 10.0 mi North - - N/A   Clear
1:53 AM 23.0 °F - 15.1 °F 72% 30.12 in 10.0 mi North - - N/A   Clear
2:53 AM 26.1 °F - 17.1 °F 69% 30.11 in 10.0 mi North - - N/A   Clear
3:53 AM 21.0 °F - 15.1 °F 78% 30.13 in 10.0 mi North - - N/A   Clear
4:53 AM 21.0 °F - 15.1 °F 78% 30.16 in 10.0 mi North - - N/A   Clear
5:53 AM 21.0 °F - 14.0 °F 74% 30.20 in 10.0 mi North - - N/A   Clear
6:53 AM 19.0 °F - 12.9 °F 77% 30.21 in 10.0 mi North - - N/A   Clear
7:53 AM 21.9 °F - 17.1 °F 82% 30.21 in 10.0 mi Calm Calm - N/A   Clear
8:53 AM 32.0 °F - 21.0 °F 64% 30.20 in 10.0 mi Calm Calm - N/A   Clear
9:53 AM 43.0 °F 40.3 °F 21.0 °F 42% 30.16 in 10.0 mi SSW 4.6 mph - N/A   Clear
10:53 AM 54.0 °F - 21.0 °F 28% 30.10 in 10.0 mi SW 8.1 mph - N/A   Clear
11:53 AM 57.0 °F - 21.0 °F 25% 30.06 in 10.0 mi WSW 17.3 mph - N/A   Clear
12:53 PM 59.0 °F - 21.9 °F 24% 30.04 in 10.0 mi WSW 15.0 mph - N/A   Clear
1:53 PM 59.0 °F - 21.9 °F 24% 30.03 in 10.0 mi WSW 9.2 mph - N/A   Clear
2:53 PM 57.0 °F - 23.0 °F 27% 30.02 in 10.0 mi SSW 6.9 mph - N/A   Clear
3:53 PM 53.1 °F - 24.1 °F 32% 30.04 in 10.0 mi South 5.8 mph - N/A   Clear
4:53 PM 39.9 °F 34.5 °F 21.9 °F 49% 30.08 in 10.0 mi SSE 8.1 mph - N/A   Clear
5:53 PM 35.1 °F 28.6 °F 21.9 °F 59% 30.10 in 10.0 mi South 8.1 mph - N/A   Clear
6:53 PM 34.0 °F 26.6 °F 21.9 °F 61% 30.10 in 10.0 mi SSE 9.2 mph - N/A   Clear
7:53 PM 34.0 °F 28.0 °F 21.9 °F 61% 30.09 in 10.0 mi SE 6.9 mph - N/A   Clear
8:53 PM 34.0 °F 27.2 °F 21.9 °F 61% 30.06 in 10.0 mi SSE 8.1 mph - N/A   Clear
9:53 PM 28.0 °F - 19.9 °F 72% 30.03 in 10.0 mi Calm Calm - N/A   Clear
10:53 PM 28.0 °F - 19.9 °F 72% 29.99 in 10.0 mi Calm Calm - N/A   Clear
11:53 PM 27.0 °F 21.6 °F 19.0 °F 72% 29.98 in 10.0 mi South 4.6 mph - N/A   Clear